Location: Central Coast
(33.3208°S, 151.2336°E)
Time: 12:38:23
(UTC+11:00)

Vanguard 1 - All Passes

Search period start: 16 December 2017 00:00
Search period end: 26 December 2017 00:00
Orbit: 650 x 3833 km, 34.2° (Epoch: 13 December)

Date Brightness Start Highest point End Pass type
(mag) Time Alt. Az. Time Alt. Az. Time Alt. Az.
16 Dec - 02:03:53 10° W 02:13:25 82° NNW 02:31:37 10° ENE visible
16 Dec - 04:24:44 10° W 04:37:30 49° NNW 04:57:53 10° NE visible
16 Dec - 06:50:42 10° W 07:02:31 20° NW 07:16:40 10° N daylight
16 Dec - 19:30:35 10° NNE 19:31:56 11° NE 19:33:22 10° ENE daylight
16 Dec - 21:46:03 10° WNW 21:51:01 64° NNE 21:59:07 10° ESE visible
17 Dec - 00:05:11 10° W 00:12:04 84° S 00:25:14 10° E visible
17 Dec - 02:24:55 10° WSW 02:34:45 73° NNW 02:53:17 10° ENE visible
17 Dec - 04:46:15 10° W 04:58:56 40° NNW 05:18:11 10° NNE visible
17 Dec - 07:16:07 10° WNW 07:24:01 13° NW 07:32:48 10° NNW daylight
17 Dec - 19:49:18 10° N 19:52:33 19° NE 19:56:21 10° E daylight
17 Dec - 22:06:50 10° WNW 22:11:59 79° NNE 22:20:39 10° E visible
18 Dec - 00:26:09 10° W 00:33:19 87° S 00:47:07 10° E visible
18 Dec - 02:45:59 10° W 02:56:06 63° NNW 03:14:40 10° NE visible
18 Dec - 05:08:08 10° W 05:20:23 31° NW 05:37:57 10° NNE visible
18 Dec - 20:09:16 10° NNW 20:13:13 30° NNE 20:18:11 10° E daylight
18 Dec - 22:27:44 10° W 22:33:03 89° S 22:42:13 10° E visible
19 Dec - 00:47:07 10° W 00:54:34 87° NNW 01:08:58 10° ENE visible
19 Dec - 03:07:08 10° W 03:17:27 53° NNW 03:35:44 10° NE visible
19 Dec - 05:30:37 10° W 05:41:51 24° NW 05:56:58 10° N daylight
19 Dec - 20:29:41 10° NW 20:33:58 45° NNE 20:39:41 10° E visible
19 Dec - 22:48:41 10° W 22:54:10 84° S 23:03:51 10° E visible
20 Dec - 01:08:05 10° W 01:15:49 78° NNW 01:30:43 10° ENE visible
20 Dec - 03:28:26 10° W 03:38:50 43° NNW 03:56:24 10° NE visible
20 Dec - 05:54:12 10° WNW 06:03:24 17° NW 06:14:48 10° N daylight
20 Dec - 18:34:00 10° NNE 18:35:30 11° NE 18:37:00 10° NE daylight
20 Dec - 20:50:22 10° WNW 20:54:50 63° NNE 21:01:04 10° E visible
20 Dec - 23:09:38 10° W 23:15:20 83° S 23:25:33 10° E visible
21 Dec - 01:29:03 10° W 01:37:03 68° NNW 01:52:15 10° ENE visible
21 Dec - 03:50:00 10° W 04:00:16 35° NNW 04:16:36 10° NNE visible
21 Dec - 06:21:38 10° NW 06:25:04 11° NW 06:28:45 10° NNW daylight
21 Dec - 18:53:01 10° NNW 18:56:17 19° NNE 18:59:38 10° ENE daylight
21 Dec - 21:11:13 10° WNW 21:15:47 80° NNE 21:22:26 10° E visible
21 Dec - 23:30:35 10° W 23:36:30 87° S 23:47:15 10° E visible
22 Dec - 01:50:06 10° W 01:58:17 57° NNW 02:13:32 10° NE visible
22 Dec - 04:11:57 10° W 04:21:44 27° NNW 04:36:12 10° NNE visible
22 Dec - 19:13:06 10° NW 19:17:05 30° NNE 19:21:17 10° E daylight
22 Dec - 21:32:08 10° W 21:36:49 87° S 21:43:49 10° E visible
22 Dec - 23:51:31 10° W 23:57:38 85° NNW 00:08:55 10° ENE visible
23 Dec - 02:11:15 10° W 02:19:35 46° NNW 02:34:28 10° NE visible
23 Dec - 04:34:39 10° WNW 04:43:16 19° NNW 04:54:54 10° N visible
23 Dec - 19:33:38 10° NW 19:37:55 45° NNE 19:42:37 10° E daylight
23 Dec - 21:53:07 10° W 21:57:54 82° S 22:05:17 10° E visible
24 Dec - 00:12:27 10° W 00:18:47 74° NNW 00:30:29 10° ENE visible
24 Dec - 02:32:35 10° W 02:40:54 37° NNW 02:55:01 10° NNE visible
24 Dec - 04:59:07 10° WNW 05:04:53 13° NW 05:11:44 10° NNW visible
24 Dec - 17:36:24 10° N 17:39:10 14° NNE 17:41:39 10° ENE daylight
24 Dec - 19:54:25 10° WNW 19:58:49 64° NNE 20:03:52 10° E daylight
24 Dec - 22:14:05 10° W 22:18:59 82° S 22:26:47 10° E visible
25 Dec - 00:33:26 10° W 00:39:55 61° NNW 00:51:52 10° ENE visible
25 Dec - 02:54:13 10° W 03:02:18 28° NNW 03:15:01 10° NNE visible
25 Dec - 17:56:03 10° NNW 18:00:05 23° NNE 18:03:38 10° E daylight
25 Dec - 20:15:21 10° WNW 20:19:46 83° N 20:25:05 10° E daylight
25 Dec - 22:35:02 10° W 22:40:04 88° SSE 22:48:18 10° E visible
